Shelton, WA

12:24 AM PDT on April 28, 2017 (GMT -0700)
Sanderson

Weather History for KSHN - October, 2012

Change the Weather History Date:

Monday, October 22, 2012

  Actual Average Record
Temperature  
Mean Temperature 39 °F -  
Max Temperature 43 °F 58 °F 73 °F (1969)
Min Temperature 35 °F 41 °F 30 °F (1949)
Degree Days  
Heating Degree Days 26    
Moisture  
Dew Point 39 °F    
Average Humidity 97    
Maximum Humidity 100    
Minimum Humidity 89    
Precipitation  
Precipitation 0.46 in - - ()
Sea Level Pressure  
Sea Level Pressure 29.63 in    
Wind  
Wind Speed 2 mph (NNE)    
Max Wind Speed 6 mph    
Max Gust Speed -    
Visibility 7 miles    
Events Rain    
Averages and records for this station are not official NWS values.
T = Trace of Precipitation, MM = Missing Value Source: NWS Daily Summary

Daily Weather History Graph

Daily Weather History Graph

Search for Another Location

Airport or City:

Trip Planner

Search our weather history database for the weather conditions in past years. The results will help you decide how hot, cold, wet, or windy it might be!

Date:

Astronomy

Oct. 22, 2012 Rise Set
Actual Time 7:41 AM PDT 6:11 PM PDT
Civil Twilight 7:10 AM PDT 6:42 PM PDT
Nautical Twilight 6:34 AM PDT 7:18 PM PDT
Astronomical Twilight 5:59 AM PDT 7:53 PM PDT
Moon 2:47 PM PDT (10/22) 12:07 AM PDT (10/22)
Length of Visible Light 11h 31m
Length of Day
10h 29m
First Quarter, 57% of the Moon is Illuminated
Oct 22
First Quarter
Oct 29
Full
Nov 6
Last Quarter
Nov 13
New
Nov 20
First Quarter

Hourly Weather History & Observations

Time (PDT) Temp. Windchill Dew Point Humidity Pressure Visibility Wind Dir Wind Speed Gust Speed Precip Events Conditions
12:33 AM 37.4 °F 32.8 °F 37.4 °F 100% 29.73 in 2.5 mi NNW 5.8 mph - N/A   Overcast
12:40 AM 37.4 °F 34.9 °F 37.4 °F 100% 29.73 in 10.0 mi NW 3.5 mph - N/A   Overcast
12:53 AM 36.0 °F 33.3 °F 36.0 °F 100% 29.75 in 2.5 mi SW 3.5 mph - N/A   Overcast
1:00 AM 35.6 °F - 35.6 °F 100% 29.73 in 4.0 mi Calm Calm - N/A   Overcast
1:10 AM 35.6 °F - 35.6 °F 100% 29.73 in 10.0 mi Calm Calm - N/A   Overcast
1:39 AM 37.4 °F - 37.4 °F 100% 29.72 in 10.0 mi Calm Calm - N/A   Overcast
1:53 AM 37.9 °F - 37.9 °F 100% 29.73 in 10.0 mi Calm Calm - N/A   Overcast
2:06 AM 37.4 °F - 37.4 °F 100% 29.70 in 10.0 mi Calm Calm - N/A   Overcast
2:53 AM 36.0 °F - 36.0 °F 100% 29.70 in 10.0 mi Calm Calm - N/A   Mostly Cloudy
3:53 AM 37.0 °F 34.5 °F 37.0 °F 100% 29.68 in 10.0 mi SSE 3.5 mph - 0.00 in   Overcast
4:53 AM 37.4 °F - 37.4 °F 100% 29.63 in 10.0 mi Calm Calm - N/A   Overcast
5:53 AM 39.0 °F - 37.0 °F 93% 29.62 in 10.0 mi Calm Calm - N/A   Overcast
6:53 AM 39.0 °F - 37.9 °F 96% 29.60 in 10.0 mi Calm Calm - N/A   Mostly Cloudy
7:53 AM 37.0 °F 34.5 °F 37.0 °F 100% 29.59 in 10.0 mi South 3.5 mph - N/A   Overcast
8:53 AM 37.9 °F - 37.0 °F 97% 29.59 in 10.0 mi Calm Calm - 0.00 in Rain Light Rain
9:53 AM 39.9 °F - 39.0 °F 97% 29.59 in 5.0 mi Calm Calm - 0.03 in Rain Light Rain
10:22 AM 39.2 °F - 39.2 °F 100% 29.58 in 2.5 mi Calm Calm - 0.04 in Rain Light Rain
10:29 AM 39.2 °F - 39.2 °F 100% 29.58 in 3.0 mi Calm Calm - 0.05 in Rain Light Rain
10:41 AM 39.2 °F - 39.2 °F 100% 29.57 in 2.5 mi Calm Calm - 0.07 in Rain Rain
10:53 AM 41.0 °F - 39.9 °F 96% 29.59 in 3.0 mi Calm Calm - 0.10 in Rain Light Rain
11:28 AM 41.0 °F - 39.2 °F 93% 29.57 in 4.0 mi Calm Calm - 0.05 in Rain Light Rain
11:53 AM 41.0 °F - 39.9 °F 96% 29.59 in 3.0 mi Calm Calm - 0.09 in Rain Light Rain
12:53 PM 42.1 °F 40.2 °F 42.1 °F 100% 29.58 in 4.0 mi SSW 3.5 mph - 0.07 in Rain Light Rain
1:25 PM 42.8 °F 40.1 °F 41.0 °F 93% 29.56 in 5.0 mi South 4.6 mph - 0.03 in Rain Light Rain
1:53 PM 43.0 °F 41.3 °F 41.0 °F 93% 29.58 in 6.0 mi SSE 3.5 mph - 0.04 in Rain Light Rain
2:53 PM 42.1 °F - 39.9 °F 92% 29.58 in 7.0 mi Calm Calm - 0.02 in Rain Light Rain
3:53 PM 43.0 °F 41.3 °F 39.9 °F 89% 29.59 in 10.0 mi NE 3.5 mph - 0.01 in   Overcast
4:53 PM 42.1 °F 40.2 °F 39.9 °F 92% 29.60 in 4.0 mi NE 3.5 mph - 0.01 in Rain Light Rain
5:53 PM 42.1 °F - 41.0 °F 96% 29.60 in 6.0 mi Calm Calm - 0.04 in Rain Light Rain
6:08 PM 42.8 °F 41.1 °F 41.0 °F 93% 29.59 in 7.0 mi NNE 3.5 mph - 0.00 in Rain Light Rain
6:36 PM 42.8 °F - 41.0 °F 93% 29.59 in 10.0 mi Calm Calm - 0.00 in   Overcast
6:53 PM 42.1 °F 40.2 °F 41.0 °F 96% 29.60 in 10.0 mi NNE 3.5 mph - 0.00 in   Overcast
7:53 PM 42.1 °F 39.2 °F 41.0 °F 96% 29.61 in 5.0 mi NNE 4.6 mph - 0.01 in Rain Light Rain
8:53 PM 42.1 °F 39.2 °F 41.0 °F 96% 29.62 in 6.0 mi WNW 4.6 mph - 0.01 in   Overcast
9:53 PM 42.1 °F - 41.0 °F 96% 29.62 in 8.0 mi Calm Calm - 0.01 in Rain Light Rain
10:53 PM 42.1 °F - 41.0 °F 96% 29.63 in 10.0 mi Calm Calm - 0.00 in   Overcast
11:26 PM 41.0 °F - 41.0 °F 100% 29.62 in 8.0 mi Calm Calm - 0.01 in Rain Light Rain
11:53 PM 42.1 °F - 41.0 °F 96% 29.64 in 9.0 mi Calm Calm - 0.02 in Rain Light Rain